FW4702 Weather Reports


time (UTC)temp
F
wind
direction
speed
knots
gust
knots
rain 1hr
in
rain 24hr
in
rain mn
in
humidity
%
barometer
mb
20260906095556 73 327 0.0 2.6 0.00 0.00 0.00 89 1013.2
20260906095053 74 0 0.0 2.6 0.00 0.00 0.00 88 1013.1
20260906094605 73 322 0.9 2.6 0.00 0.00 0.00 89 1013.3
20260906094053 73 319 0.0 1.7 0.00 0.00 0.00 90 1013.3
20260906093603 73 0 0.0 0.9 0.00 0.00 0.00 90 1013.3
20260906093109 72 0 0.0 0.9 0.00 0.00 0.00 90 1013.2
20260906092553 73 202 0.0 0.9 0.00 0.00 0.00 89 1013.1
20260906092056 73 0 0.0 1.7 0.00 0.00 0.00 89 1013.2
20260906091618 73 202 0.0 1.7 0.00 0.00 0.00 89 1013.3
20260906091056 73 202 0.9 1.7 0.00 0.00 0.00 88 1013.2
20260906090555 74 161 0.0 0.9 0.00 0.00 0.00 87 1013.5
20260906090129 74 0 0.0 0.9 0.00 0.00 0.00 87 1013.7
20260906085555 74 0 0.0 1.7 0.00 0.00 0.00 87 1013.6
20260906085053 74 0 0.0 1.7 0.00 0.00 0.00 86 1013.6
20260906084626 74 0 0.0 1.7 0.00 0.00 0.00 86 1013.6
20260906084052 74 0 0.0 1.7 0.00 0.00 0.00 86 1013.2
20260906083556 74 0 0.0 1.7 0.00 0.00 0.00 86 1013.1
20260906083106 73 0 0.0 0.9 0.00 0.00 0.00 86 1013.1
20260906082558 74 0 0.0 0.9 0.00 0.00 0.00 87 1013.0
20260906082055 74 0 0.0 0.9 0.00 0.00 0.00 86 1013.0
20260906081610 75 0 0.0 5.2 0.00 0.00 0.00 85 1013.4
20260906081055 75 0 0.9 5.2 0.00 0.00 0.00 83 1013.4
20260906080553 75 0 0.0 3.5 0.00 0.00 0.00 83 1013.7
20260906080100 75 345 0.9 3.5 0.00 0.00 0.00 83 1013.9
20260906075556 76 0 0.0 7.0 0.00 0.00 0.00 82 1014.1
20260906075056 77 118 1.7 7.0 0.00 0.00 0.00 79 1014.2
20260906074623 78 0 1.7 13.0 0.00 0.00 0.00 78 1014.2
20260906074057 78 76 1.7 13.0 0.00 0.00 0.00 78 1014.3
20260906073559 78 29 2.6 13.9 0.00 0.00 0.00 78 1014.4
20260906073115 78 32 2.6 13.9 0.00 0.00 0.00 79 1014.4
20260906072556 78 59 3.5 11.3 0.00 0.00 0.00 80 1014.4
20260906072056 78 5 1.7 10.4 0.00 0.00 0.00 81 1014.5
20260906071607 78 54 3.5 10.4 0.00 0.00 0.00 82 1014.5
20260906071053 78 43 2.6 9.6 0.00 0.00 0.00 82 1014.6
20260906070556 78 93 2.6 7.8 0.00 0.00 0.00 83 1014.4
20260906070104 78 5 0.9 1.7 0.00 0.00 0.00 85 1014.2
20260906065553 78 71 0.0 4.3 0.00 0.00 0.00 86 1013.8
20260906065056 78 85 0.0 4.3 0.00 0.00 0.00 87 1013.8
20260906064606 77 39 1.7 4.3 0.00 0.00 0.00 87 1013.8
20260906064059 77 58 0.0 2.6 0.00 0.00 0.00 89 1013.8
20260906063555 77 0 0.0 2.6 0.00 0.00 0.00 89 1013.7
20260906063109 76 0 0.0 1.7 0.00 0.00 0.00 91 1013.6
20260906062618 76 22 0.0 1.7 0.00 0.00 0.00 92 1013.3
20260906062057 76 0 0.0 0.9 0.00 0.00 0.00 92 1013.3
20260906061603 76 0 0.0 0.0 0.00 0.00 0.00 92 1013.5
20260906061057 76 0 0.0 0.9 0.00 0.00 0.00 91 1013.5
20260906060558 76 0 0.0 0.9 0.00 0.00 0.00 91 1013.5
20260906060136 77 0 0.0 0.9 0.00 0.00 0.00 90 1013.5
20260906055558 76 0 0.0 0.9 0.00 0.00 0.00 91 1013.6
20260906055058 76 0 0.0 0.9 0.00 0.00 0.00 91 1013.6
20260906054617 76 0 0.0 1.7 0.00 0.00 0.00 90 1013.6
20260906054100 76 0 0.0 4.3 0.00 0.00 0.00 90 1013.6
20260906053557 77 240 0.0 4.3 0.00 0.00 0.00 89 1013.7
20260906053105 76 59 1.7 3.5 0.00 0.00 0.00 91 1014.0
20260906052557 76 66 0.0 1.7 0.00 0.00 0.00 91 1013.6
20260906052059 75 0 0.0 1.7 0.00 0.00 0.00 91 1013.3
20260906051604 75 0 0.0 2.6 0.00 0.00 0.00 92 1013.1
20260906051059 74 108 0.0 2.6 0.00 0.00 0.00 91 1013.0
20260906050601 75 0 0.0 0.0 0.00 0.00 0.00 91 1013.1
20260906050104 75 0 0.0 0.0 0.00 0.00 0.00 91 1013.0
20260906045557 75 0 0.0 0.0 0.00 0.00 0.00 91 1013.0
20260906045058 75 0 0.0 0.0 0.00 0.00 0.00 90 1013.2
20260906044605 75 0 0.0 0.0 0.00 0.00 0.00 91 1013.2
20260906044102 75 0 0.0 0.0 0.00 0.00 0.00 90 1013.3
20260906043558 75 0 0.0 0.0 0.00 0.00 0.00 90 1013.5
20260906043104 75 0 0.0 0.0 0.00 0.00 0.00 90 1013.5
20260906042558 75 0 0.0 0.0 0.00 0.00 0.00 91 1013.6
20260906042059 74 0 0.0 0.0 0.00 0.00 0.00 91 1013.7
20260906041604 74 0 0.0 0.0 0.00 0.00 0.00 90 1013.5
20260906041059 75 0 0.0 0.0 0.00 0.00 0.00 90 1013.4
20260906040558 75 0 0.0 0.0 0.00 0.00 0.00 89 1013.4
20260906040101 74 0 0.0 0.0 0.00 0.00 0.00 89 1013.4
20260906035558 74 0 0.0 0.0 0.00 0.00 0.00 90 1013.5
20260906035058 75 0 0.0 0.0 0.00 0.00 0.00 90 1013.5
20260906034607 75 0 0.0 0.0 0.00 0.00 0.00 90 1013.5
20260906034057 75 0 0.0 0.0 0.00 0.00 0.00 89 1013.5
20260906033558 75 0 0.0 0.0 0.00 0.00 0.00 89 1013.5
20260906033102 75 0 0.0 0.0 0.00 0.00 0.00 89 1013.5
20260906032558 75 0 0.0 0.0 0.00 0.00 0.00 88 1013.5
20260906032058 75 0 0.0 0.0 0.00 0.00 0.00 87 1013.5
20260906031558 75 0 0.0 0.0 0.00 0.00 0.00 88 1013.5
20260906031058 75 0 0.0 0.0 0.00 0.00 0.00 88 1013.5
20260906030553 75 0 0.0 0.0 0.00 0.00 0.00 88 1013.6
20260906030059 75 0 0.0 0.0 0.00 0.00 0.00 88 1013.5
20260906025557 75 0 0.0 0.0 0.00 0.00 0.00 87 1013.5
20260906025056 76 0 0.0 0.0 0.00 0.00 0.00 86 1013.4
20260906024621 76 0 0.0 0.9 0.00 0.00 0.00 85 1013.3
20260906024055 76 0 0.0 0.9 0.00 0.00 0.00 86 1013.3
20260906023553 76 0 0.0 0.9 0.00 0.00 0.00 87 1013.1
20260906023104 76 0 0.0 0.0 0.00 0.00 0.00 85 1013.1
20260906022556 76 0 0.0 0.9 0.00 0.00 0.00 86 1012.9
20260906022055 76 0 0.0 0.9 0.00 0.00 0.00 86 1012.9
20260906021606 77 0 0.0 0.9 0.00 0.00 0.00 85 1012.9
20260906021100 77 0 0.0 0.0 0.00 0.00 0.00 83 1012.9
20260906020553 76 0 0.0 0.0 0.00 0.00 0.00 84 1012.9
20260906020114 76 0 0.0 0.0 0.00 0.00 0.00 85 1012.8
20260906015558 76 0 0.0 0.0 0.00 0.00 0.00 86 1012.8
20260906015056 77 0 0.0 0.0 0.00 0.00 0.00 85 1012.6
20260906014609 76 0 0.0 0.0 0.00 0.00 0.00 84 1012.5
20260906014056 77 0 0.0 0.0 0.00 0.00 0.00 84 1012.5
20260906013555 77 0 0.0 0.0 0.00 0.00 0.00 83 1012.4
20260906013105 77 0 0.0 0.0 0.00 0.00 0.00 83 1012.3
20260906012556 77 0 0.0 0.0 0.00 0.00 0.00 83 1012.3
20260906012055 77 0 0.0 0.0 0.00 0.00 0.00 82 1012.3
20260906011607 77 0 0.0 0.0 0.00 0.00 0.00 81 1012.3
20260906011056 78 0 0.0 0.0 0.00 0.00 0.00 81 1012.2
20260906010556 78 0 0.0 0.9 0.00 0.00 0.00 79 1012.2
20260906010145 78 0 0.0 0.9 0.00 0.00 0.00 80 1012.1
20260906005553 79 0 0.0 0.9 0.00 0.00 0.00 79 1012.0
20260906005055 79 0 0.0 1.7 0.00 0.00 0.00 76 1012.0
20260906004615 79 0 0.0 1.7 0.00 0.00 0.00 77 1011.9
20260906004056 79 0 0.9 1.7 0.00 0.00 0.00 77 1011.9
20260906003556 80 0 0.0 1.7 0.00 0.00 0.00 75 1012.0
20260906003103 80 0 0.0 1.7 0.00 0.00 0.00 73 1012.0
20260906002555 80 313 0.0 2.6 0.00 0.00 0.00 74 1011.9
20260906002056 80 320 0.9 2.6 0.00 0.00 0.00 74 1012.1
20260906001607 81 222 0.9 1.7 0.00 0.00 0.00 72 1012.2
20260906001055 81 208 0.0 5.2 0.00 0.00 0.00 72 1012.3
20260906000555 82 184 0.9 6.1 0.00 0.00 0.00 72 1012.6
20260905235556 85 67 0.9 9.6 0.00 0.00 0.00 70 1012.8
20260905235056 85 65 4.3 11.3 0.00 0.00 0.00 65 1012.7
20260905234610 86 22 0.9 13.9 0.00 0.00 0.00 68 1012.5
20260905234056 87 34 4.3 13.9 0.00 0.00 0.00 67 1012.4
20260905233556 87 52 2.6 9.6 0.00 0.00 0.00 69 1012.3
20260905233120 88 38 0.9 3.5 0.00 0.00 0.00 73 1012.4
20260905232556 87 0 0.0 0.9 0.00 0.00 0.00 80 1011.9
20260905232056 87 0 0.0 0.9 0.00 0.00 0.00 78 1011.7
20260905231620 88 0 0.0 0.9 0.00 0.00 0.00 76 1011.6
20260905231056 88 0 0.0 0.9 0.00 0.00 0.00 71 1011.6
20260905230556 89 0 0.0 0.9 0.00 0.00 0.00 73 1011.6
20260905230114 90 0 0.0 1.7 0.00 0.00 0.00 68 1011.4
20260905225555 91 0 0.0 2.6 0.00 0.00 0.00 62 1011.5
20260905225056 93 0 0.9 2.6 0.00 0.00 0.00 59 1011.5
20260905224611 91 320 0.0 1.7 0.00 0.00 0.00 61 1011.5
20260905224057 92 5 0.0 1.7 0.00 0.00 0.00 60 1011.4
20260905223557 93 5 0.0 1.7 0.00 0.00 0.00 58 1011.5
20260905223123 93 0 0.0 1.7 0.00 0.00 0.00 60 1011.5
20260905222559 94 0 0.0 2.6 0.00 0.00 0.00 54 1011.6
20260905222055 94 0 0.0 2.6 0.00 0.00 0.00 57 1011.6
20260905221603 95 0 0.0 2.6 0.00 0.00 0.00 52 1011.6
20260905221056 95 321 0.0 1.7 0.00 0.00 0.00 53 1011.6
20260905220558 94 0 0.0 1.7 0.00 0.00 0.00 53 1011.7
20260905220104 94 0 0.0 3.5 0.00 0.00 0.00 54 1011.6
20260905215556 95 0 0.0 3.5 0.00 0.00 0.00 53 1011.7
20260905215059 94 352 0.0 1.7 0.00 0.00 0.00 55 1011.7
20260905214613 95 0 0.0 1.7 0.00 0.00 0.00 52 1011.7
20260905214057 94 331 0.0 4.3 0.00 0.00 0.00 54 1011.8
20260905213557 95 346 0.9 4.3 0.00 0.00 0.00 54 1011.8
20260905213103 96 300 0.9 3.5 0.00 0.00 0.00 53 1011.9
20260905212556 95 0 0.9 3.5 0.00 0.00 0.00 53 1011.9
20260905212056 95 0 0.9 3.5 0.00 0.00 0.00 52 1011.8
20260905211607 95 317 0.9 3.5 0.00 0.00 0.00 53 1011.8
20260905211056 95 0 0.9 3.5 0.00 0.00 0.00 53 1011.8
20260905210556 95 0 0.0 3.5 0.00 0.00 0.00 54 1011.7
20260905210116 95 333 0.9 3.5 0.00 0.00 0.00 52 1011.6
20260905205558 95 322 0.0 2.6 0.00 0.00 0.00 52 1011.8
20260905205056 95 302 1.7 2.6 0.00 0.00 0.00 52 1012.0
20260905204604 95 302 0.0 5.2 0.00 0.00 0.00 50 1012.0
20260905204056 96 90 0.9 5.2 0.00 0.00 0.00 51 1012.1
20260905203557 96 40 0.0 1.7 0.00 0.00 0.00 49 1012.2
20260905203058 96 0 0.0 3.5 0.00 0.00 0.00 49 1012.2
20260905202555 96 0 0.9 3.5 0.00 0.00 0.00 49 1012.2
20260905202100 96 37 0.0 2.6 0.00 0.00 0.00 47 1012.3
20260905201605 96 0 0.9 2.6 0.00 0.00 0.00 49 1012.3
20260905201055 96 0 0.9 4.3 0.00 0.00 0.00 50 1012.4
20260905200555 96 306 0.0 4.3 0.00 0.00 0.00 52 1012.6
20260905200130 97 5 0.9 4.3 0.00 0.00 0.00 50 1012.8
20260905195556 96 26 0.0 3.5 0.00 0.00 0.00 52 1012.8
20260905195056 95 0 0.0 5.2 0.00 0.00 0.00 51 1012.8
20260905194602 96 0 0.0 6.1 0.00 0.00 0.00 50 1012.8
20260905194056 97 252 1.7 6.1 0.00 0.00 0.00 48 1012.9
20260905193556 96 212 0.0 3.5 0.00 0.00 0.00 51 1012.8
20260905193103 95 0 0.9 3.5 0.00 0.00 0.00 50 1012.9
20260905192556 96 313 0.9 3.5 0.00 0.00 0.00 51 1013.1
20260905192056 95 0 0.0 5.2 0.00 0.00 0.00 54 1013.2
20260905191605 95 318 1.7 5.2 0.00 0.00 0.00 52 1013.1
20260905191055 96 299 1.7 5.2 0.00 0.00 0.00 52 1013.1
20260905190556 96 5 0.0 3.5 0.00 0.00 0.00 54 1013.3
20260905190101 95 28 0.9 4.3 0.00 0.00 0.00 53 1013.4
20260905185552 95 94 1.7 6.1 0.00 0.00 0.00 54 1013.4
20260905185053 95 0 0.9 6.1 0.00 0.00 0.00 53 1013.7
20260905184609 94 91 0.0 4.3 0.00 0.00 0.00 56 1013.7
20260905184056 94 0 0.0 5.2 0.00 0.00 0.00 55 1013.7
20260905183553 95 0 2.6 5.2 0.00 0.00 0.00 55 1013.7
20260905183103 94 0 0.0 5.2 0.00 0.00 0.00 57 1013.9
20260905182553 95 0 0.9 5.2 0.00 0.00 0.00 54 1013.8
20260905182056 95 352 0.9 7.8 0.00 0.00 0.00 54 1013.8
20260905181604 95 0 1.7 7.8 0.00 0.00 0.00 55 1013.9
20260905181055 94 41 3.5 7.8 0.00 0.00 0.00 55 1014.0
20260905180553 94 0 0.0 3.5 0.00 0.00 0.00 57 1014.2
20260905175557 94 40 1.7 4.3 0.00 0.00 0.00 57 1014.2
20260905175053 94 100 0.0 4.3 0.00 0.00 0.00 58 1014.3
20260905174609 94 64 0.9 5.2 0.00 0.00 0.00 57 1014.2
20260905174052 94 0 0.9 5.2 0.00 0.00 0.00 56 1014.2
20260905173556 94 79 1.7 6.1 0.00 0.00 0.00 57 1014.3
20260905173105 94 48 1.7 6.1 0.00 0.00 0.00 57 1014.4
20260905172552 94 331 0.9 4.3 0.00 0.00 0.00 58 1014.5
20260905172056 93 85 0.0 5.2 0.00 0.00 0.00 59 1014.5
20260905171604 93 0 0.9 5.2 0.00 0.00 0.00 61 1014.6
20260905171055 93 72 0.9 5.2 0.00 0.00 0.00 61 1014.7
20260905170556 93 0 0.0 3.5 0.00 0.00 0.00 64 1014.7
20260905170101 92 0 0.9 4.3 0.00 0.00 0.00 60 1014.7
20260905165553 92 34 1.7 4.3 0.00 0.00 0.00 60 1014.7
20260905165056 92 352 0.9 3.5 0.00 0.00 0.00 61 1014.7
20260905164607 91 14 0.9 3.5 0.00 0.00 0.00 65 1014.8
20260905164053 91 238 0.0 3.5 0.00 0.00 0.00 68 1015.0
20260905163556 92 289 0.9 4.3 0.00 0.00 0.00 63 1015.1
20260905163106 91 352 0.9 4.3 0.00 0.00 0.00 64 1015.1
20260905162558 91 297 0.0 4.3 0.00 0.00 0.00 66 1015.3
20260905162056 91 342 0.9 4.3 0.00 0.00 0.00 64 1015.3
20260905161602 91 0 1.7 4.3 0.00 0.00 0.00 65 1015.3
20260905161056 90 0 0.9 3.5 0.00 0.00 0.00 66 1015.4
20260905160557 91 321 0.0 2.6 0.00 0.00 0.00 66 1015.4
20260905160101 90 32 0.0 2.6 0.00 0.00 0.00 67 1015.4
20260905155552 90 0 0.0 1.7 0.00 0.00 0.00 67 1015.5
20260905155052 89 0 0.0 2.6 0.00 0.00 0.00 70 1015.5
20260905154606 90 0 0.0 2.6 0.00 0.00 0.00 66 1015.6
20260905154056 89 50 0.0 2.6 0.00 0.00 0.00 69 1015.6
20260905153559 89 0 0.0 2.6 0.00 0.00 0.00 69 1015.6
20260905153104 89 5 0.9 1.7 0.00 0.00 0.00 68 1015.6
20260905152559 88 0 0.0 1.7 0.00 0.00 0.00 70 1015.6
20260905152056 88 0 0.0 1.7 0.00 0.00 0.00 72 1015.5
20260905151622 87 0 0.0 1.7 0.00 0.00 0.00 73 1015.7
20260905151056 86 0 0.0 1.7 0.00 0.00 0.00 80 1015.7
20260905150555 85 0 0.0 1.7 0.00 0.00 0.00 81 1015.6
20260905150104 86 0 0.0 0.9 0.00 0.00 0.00 79 1015.6
20260905145559 86 0 0.0 0.9 0.00 0.00 0.00 80 1015.5
20260905145055 85 165 0.0 0.9 0.00 0.00 0.00 81 1015.6
20260905144600 85 0 0.0 1.7 0.00 0.00 0.00 81 1015.5
20260905144058 84 0 0.0 1.7 0.00 0.00 0.00 82 1015.6
20260905143557 85 0 0.0 1.7 0.00 0.00 0.00 80 1015.6
20260905143105 84 58 0.0 1.7 0.00 0.00 0.00 81 1015.7
20260905142558 84 0 0.0 1.7 0.00 0.00 0.00 83 1015.8
20260905142055 83 0 0.0 1.7 0.00 0.00 0.00 84 1015.9
20260905141603 82 0 0.0 0.9 0.00 0.00 0.00 86 1015.9
20260905141057 82 0 0.0 0.9 0.00 0.00 0.00 85 1015.9
20260905140556 82 0 0.0 1.7 0.00 0.00 0.00 85 1016.0
20260905140105 82 0 0.0 1.7 0.00 0.00 0.00 85 1015.9
20260905135557 82 0 0.0 1.7 0.00 0.00 0.00 87 1016.0
20260905135057 81 0 0.0 0.0 0.00 0.00 0.00 88 1016.0
20260905134601 80 0 0.0 0.0 0.00 0.00 0.00 90 1016.1
20260905134059 80 0 0.0 0.0 0.00 0.00 0.00 90 1016.0
20260905133556 79 0 0.0 0.0 0.00 0.00 0.00 90 1016.0
20260905133105 79 0 0.0 0.0 0.00 0.00 0.00 90 1016.1
20260905132556 79 0 0.0 0.0 0.00 0.00 0.00 91 1016.1
20260905132056 78 0 0.0 0.0 0.00 0.00 0.00 91 1016.1
20260905131609 78 0 0.0 0.0 0.00 0.00 0.00 93 1016.2
20260905131055 77 0 0.0 0.0 0.00 0.00 0.00 93 1016.2
20260905130557 77 0 0.0 0.0 0.00 0.00 0.00 95 1016.2
20260905125556 76 0 0.0 0.0 0.00 0.00 0.00 96 1016.1
20260905125059 75 0 0.0 0.0 0.00 0.00 0.00 97 1016.2
20260905124601 75 0 0.0 0.0 0.00 0.00 0.00 97 1016.2
20260905124055 74 0 0.0 0.0 0.00 0.00 0.00 97 1016.2
20260905123556 74 0 0.0 0.0 0.00 0.00 0.00 97 1016.2
20260905123111 74 0 0.0 0.0 0.00 0.00 0.00 97 1016.2
20260905122601 73 0 0.0 0.0 0.00 0.00 0.00 97 1016.1
20260905122055 73 0 0.0 0.0 0.00 0.00 0.00 97 1016.1
20260905121608 73 0 0.0 0.0 0.00 0.00 0.00 97 1016.1
20260905121053 73 0 0.0 0.0 0.00 0.00 0.00 97 1016.0
20260905120559 73 0 0.0 0.0 0.00 0.00 0.00 97 1015.9
20260905120105 72 0 0.0 0.0 0.00 0.00 0.00 97 1015.9
20260905115556 72 0 0.0 0.0 0.00 0.00 0.00 97 1015.8
20260905115055 72 0 0.0 0.0 0.00 0.00 0.00 97 1015.8
20260905114603 72 0 0.0 0.0 0.00 0.00 0.00 97 1015.7
20260905114052 72 0 0.0 0.0 0.00 0.00 0.00 97 1015.5
20260905113556 72 0 0.0 0.0 0.00 0.00 0.00 97 1015.4
20260905113112 72 0 0.0 0.0 0.00 0.00 0.00 97 1015.3
20260905112559 72 0 0.0 0.0 0.00 0.00 0.00 97 1015.3
20260905112055 72 0 0.0 0.0 0.00 0.00 0.00 97 1015.3
20260905111606 72 0 0.0 0.0 0.00 0.00 0.00 97 1015.1
20260905111055 72 0 0.0 0.0 0.00 0.00 0.00 97 1015.1
20260905110601 72 0 0.0 0.0 0.00 0.00 0.00 97 1015.0
20260905110109 72 0 0.0 0.0 0.00 0.00 0.00 96 1014.9
20260905105556 72 0 0.0 0.0 0.00 0.00 0.00 96 1014.9
20260905105057 72 0 0.0 0.0 0.00 0.00 0.00 97 1015.0
20260905104610 72 0 0.0 0.0 0.00 0.00 0.00 96 1014.8
20260905104052 72 0 0.0 0.0 0.00 0.00 0.00 96 1014.9
20260905103556 72 0 0.0 0.0 0.00 0.00 0.00 96 1014.8
20260905103107 72 0 0.0 0.0 0.00 0.00 0.00 96 1014.7
20260905102555 73 0 0.0 0.0 0.00 0.00 0.00 96 1014.7
20260905102055 73 0 0.0 0.0 0.00 0.00 0.00 97 1014.7
20260905101607 73 0 0.0 0.0 0.00 0.00 0.00 96 1014.6
20260905101055 73 0 0.0 0.0 0.00 0.00 0.00 96 1014.6
20260905100556 73 0 0.0 0.0 0.00 0.00 0.00 96 1014.5
20260905100110 73 0 0.0 0.0 0.00 0.00 0.00 96 1014.6